Location: Killam
(52.7910°N, 111.8608°W)
Time: 08:50:56
(UTC+00:00)

NOAA 15 - Pass Details

Date: 23 December 2025
Orbit: 793 x 809 km, 98.5° (Epoch: 24 January)

Event Time Altitude Azimuth Distance (km) Brightness Sun altitude
Rises 01:42:06 0° 165° (SSE) 3,310 7.8 -20.8°
Reaches altitude 10° 01:44:25 10° 166° (SSE) 2,381 7.0 -21.1°
Maximum altitude 01:49:42 83° 255° (WSW) 817 4.6 -21.9°
Drops below altitude 10° 01:55:00 10° 343° (NNW) 2,388 7.1 -22.7°
Sets 01:57:20 0° 345° (NNW) 3,320 7.9 -23.0°
